This is the latest recevied weather packets stored in our database for station/object N5COP-13. If no packets are shown the sender has not sent any weather packets the latest 10 day(s).
| Time | Temp. | Humidity | Pressure | Rain* | Wind** | Luminosity | Snow |
|---|---|---|---|---|---|---|---|
| 1777564094 | 11.67° C | 64% | 1018.1 hPa | 0 mm | - | 329 W/m² | - |
| 1777563790 | 12.22° C | 64% | 1018.2 hPa | 0 mm | - | 305 W/m² | - |
| 1777563487 | 12.22° C | 65% | 1018.3 hPa | 0 mm | - | 367 W/m² | - |
| 1777563186 | 11.67° C | 65% | 1018.4 hPa | 0 mm | - | 343 W/m² | - |
| 1777562883 | 12.22° C | 65% | 1018.3 hPa | 0 mm | - | 336 W/m² | - |
| 1777562579 | 12.22° C | 65% | 1018.3 hPa | 0 mm | - | 461 W/m² | - |
| 1777562277 | 12.22° C | 67% | 1018.2 hPa | 0 mm | - | 464 W/m² | - |
| 1777561974 | 11.67° C | 66% | 1018.2 hPa | 0 mm | - | 341 W/m² | - |
| 1777561672 | 11.67° C | 68% | 1018.3 hPa | 0 mm | - | 560 W/m² | - |
| 1777561367 | 11.11° C | 67% | 1018.3 hPa | 0 mm | - | 368 W/m² | - |
| 1777561063 | 11.67° C | 68% | 1018.3 hPa | 0 mm | - | 378 W/m² | - |
| 1777560758 | 11.11° C | 68% | 1018.4 hPa | 0 mm | - | 456 W/m² | - |
| 1777560455 | 11.11° C | 69% | 1018.5 hPa | 0 mm | - | 307 W/m² | - |
| 1777560153 | 10.56° C | 69% | 1018.7 hPa | 0 mm | - | 164 W/m² | - |
| 1777559850 | 11.11° C | 71% | 1018.5 hPa | 0 mm | - | 352 W/m² | - |
| 1777559545 | 10.56° C | 72% | 1018.5 hPa | 0 mm | - | 328 W/m² | - |
| 1777559243 | 10° C | 73% | 1018.3 hPa | 0 mm | - | 300 W/m² | - |
| 1777558938 | 9.44° C | 73% | 1018.4 hPa | 0 mm | - | 222 W/m² | - |
| 1777558634 | 9.44° C | 73% | 1018.7 hPa | 0 mm | - | 119 W/m² | - |
| 1777558330 | 9.44° C | 73% | 1018.7 hPa | 0 mm | - | 115 W/m² | - |
| 1777558027 | 9.44° C | 73% | 1018.5 hPa | 0 mm | - | 119 W/m² | - |
| 1777557723 | 9.44° C | 73% | 1018.8 hPa | 0 mm | - | 99 W/m² | - |
| 1777557419 | 9.44° C | 74% | 1019.1 hPa | 0 mm | - | 124 W/m² | - |
| 1777557116 | 8.89° C | 74% | 1019 hPa | 0 mm | - | 143 W/m² | - |
| 1777556811 | 8.89° C | 74% | 1019 hPa | 0 mm | - | 131 W/m² | - |
* Rain latest hour (hover to see other rain measurements)
** Current wind speed in m/s (hover to see current wind gust speed)